Borkum Airport


Codes: EDWR/BMK
Name: Borkum Airport
City: Borkum
Country: Germany
Elevation: 3 ft.
Wikipedia:

Photos at Borkum Airport


   Photos courtesy of SpottingLog. You can add your own sightings and photos by signing up for a free trial today.



No photos found.

Weather at Borkum Airport


Time (UTC)DescriptionTempratureWindCloud coverageVisibilityPressureHumidity
19-Apr-2024 06:00Light Rain8°C25 mph, NW100%10000m1005hPa85%
19-Apr-2024 09:00Light Rain8°C29 mph, NW100%10000m1004hPa80%
19-Apr-2024 12:00Light Rain8°C34 mph, NW100%10000m1004hPa75%
19-Apr-2024 15:00Light Rain8°C36 mph, NW99%10000m1005hPa77%
19-Apr-2024 18:00Light Rain8°C31 mph, N99%10000m1008hPa77%
19-Apr-2024 21:00Light Rain8°C27 mph, N99%10000m1012hPa61%
20-Apr-2024 00:00Broken Clouds8°C25 mph, N72%10000m1014hPa63%
20-Apr-2024 03:00Few Clouds8°C20 mph, N17%10000m1016hPa61%
20-Apr-2024 06:00Light Rain6°C18 mph, N59%10000m1018hPa77%
20-Apr-2024 09:00Light Rain6°C22 mph, N100%10000m1020hPa79%
20-Apr-2024 12:00Light Rain7°C11 mph, NW88%10000m1021hPa63%
20-Apr-2024 15:00Clear Sky6°C4 mph, NW10%10000m1021hPa74%
20-Apr-2024 18:00Few Clouds8°C16 mph, NW13%10000m1022hPa68%
20-Apr-2024 21:00Light Rain8°C16 mph, NE71%10000m1024hPa66%
21-Apr-2024 00:00Light Rain8°C13 mph, NE59%10000m1025hPa65%
21-Apr-2024 03:00Light Rain8°C11 mph, NE19%10000m1026hPa67%
21-Apr-2024 06:00Light Rain7°C11 mph, NE28%10000m1027hPa71%
21-Apr-2024 09:00Light Rain8°C16 mph, NE25%10000m1028hPa69%
21-Apr-2024 12:00Few Clouds8°C18 mph, NE14%10000m1029hPa68%
21-Apr-2024 15:00Few Clouds8°C18 mph, NE19%10000m1029hPa64%
21-Apr-2024 18:00Scattered Clouds8°C20 mph, NE41%10000m1029hPa62%
21-Apr-2024 21:00Overcast Clouds9°C20 mph, NE87%10000m1029hPa60%
22-Apr-2024 00:00Light Rain7°C11 mph, E64%10000m1029hPa67%
22-Apr-2024 03:00Light Rain7°C18 mph, NE28%10000m1028hPa57%
22-Apr-2024 06:00Scattered Clouds7°C18 mph, NE32%10000m1028hPa56%
22-Apr-2024 09:00Overcast Clouds7°C18 mph, NE100%10000m1027hPa57%
22-Apr-2024 12:00Light Rain7°C16 mph, NE87%10000m1026hPa58%
22-Apr-2024 15:00Clear Sky7°C16 mph, NE3%10000m1025hPa57%
22-Apr-2024 18:00Light Rain7°C16 mph, NE29%10000m1024hPa59%
22-Apr-2024 21:00Light Rain7°C13 mph, NE79%10000m1024hPa61%
23-Apr-2024 00:00Light Rain6°C9 mph, E76%10000m1023hPa71%
23-Apr-2024 03:00Light Rain5°C7 mph, SE65%10000m1022hPa74%
23-Apr-2024 06:00Scattered Clouds5°C7 mph, SE35%10000m1022hPa74%
23-Apr-2024 09:00Clear Sky6°C4 mph, SE0%10000m1022hPa69%
23-Apr-2024 12:00Clear Sky6°C4 mph, N2%10000m1021hPa65%
23-Apr-2024 15:00Overcast Clouds7°C7 mph, NW86%10000m1020hPa57%
23-Apr-2024 18:00Overcast Clouds8°C11 mph, NW93%10000m1018hPa60%
23-Apr-2024 21:00Overcast Clouds8°C16 mph, W100%10000m1017hPa62%
24-Apr-2024 00:00Light Rain8°C18 mph, W100%10000m1015hPa79%
24-Apr-2024 03:00Light Rain8°C20 mph, NW100%10000m1013hPa69%